[Iaude] MPEC K141: 2024 KD1 [a=2.52,e=0.57,i=13.2,H=23.1]

mpec at cfa.harvard.edu mpec at cfa.harvard.edu
Thu May 30 23:27:31 EDT 2024


M.P.E.C. 2024-K141                                 Issued 2024 May 31, 03:26 UT

     The Minor Planet Electronic Circulars contain information on unusual
         minor planets, routine data on comets and natural satellites,
         and occasional editorial announcements.  They are published
    on behalf of Division F of the International Astronomical Union by the
          Minor Planet Center, Smithsonian Astrophysical Observatory,
                          Cambridge, MA 02138, U.S.A.
			  
             Prepared using the Tamkin Foundation Computer Network

                              MPC at CFA.HARVARD.EDU
            URL https://www.minorplanetcenter.net/    ISSN 1523-6714

                                    2024 KD1                                    


Observations:
     K24K01D  C2024 05 29.39811515 35 44.495-16 10 57.23         21.00GVEK141F51
     K24K01D  C2024 05 29.40951015 35 46.411-16 10 20.49         20.78GVEK141F51
     K24K01D* C2024 05 30.39261315 38 43.621-15 19 01.00         21.08wXEK141F52
     K24K01D  C2024 05 30.40516015 38 45.634-15 18 22.72         20.88wXEK141F52
     K24K01D  C2024 05 30.41763515 38 47.616-15 17 44.68         20.91wXEK141F52
     K24K01D  C2024 05 30.43011815 38 49.613-15 17 06.41         21.15wXEK141F52
     K24K01D  C2024 05 30.48845315 38 58.950-15 14 07.93         21.02GVEK141F52
     K24K01D  C2024 05 30.48910515 38 59.055-15 14 05.80         20.94GVEK141F52
     K24K01D KB2024 05 31.00293615 40 28.44 -14 48 41.4          20.6 GXEK141I93
     K24K01D KB2024 05 31.01855115 40 30.94 -14 47 54.8          20.5 GXEK141I93

Observer details:
F51 Pan-STARRS 1, Haleakala.  Observers J. Herman, T. Lowe, P. Minguez, A.
    Schultz, I. Smith.  Measurers K. Chambers, T. de Boer, J. Fairlamb, H.
    Gao, M. Huber, C.-C. Lin, E. Magnier, Y. Ramanjooloo, R. Wainscoat, R.
    Weryk.  1.8-m Ritchey-Chretien + CCD.
F52 Pan-STARRS 2, Haleakala.  Observers J. Herman, T. Lowe, P. Minguez, A.
    Schultz, I. Smith.  Measurers K. Chambers, T. de Boer, J. Fairlamb, H.
    Gao, M. Huber, C.-C. Lin, E. Magnier, Y. Ramanjooloo, R. Wainscoat, R.
    Weryk.  1.8-m Ritchey-Chretien + CCD.
I93 St Pardon de Conques.  Observer F. Losse.  0.40-m f/3.7 reflector + CMO.

Orbital elements:
2024 KD1                                                 Earth MOID = 0.1437 AU
Epoch 2024 Mar. 31.0 TT = JDT 2460400.5                 MPC                     
M 356.65768              (2000.0)            P               Q                  
n   0.24704511     Peri.  316.57914     -0.92194634     +0.32848719             
a   2.5154665      Node   243.65048     -0.26207594     -0.91918901             
e   0.5658747      Incl.   13.23836     -0.28518616     -0.21722738             
P   3.99           H   23.17          G   0.15           U   9                  
Residuals in seconds of arc
240529 F51  0.0   0.0     240530 F52  0.1-  0.0     240531 I93  0.1-  0.2-
240529 F51  0.0   0.0     240530 F52  0.0   0.1+    240531 I93  0.3+  0.1+
240530 F52  0.2-  0.0     240530 F52  0.0   0.1-
240530 F52  0.0   0.0     240530 F52  0.0   0.1+

Ephemeris:
2024 KD1                 a,e,i = 2.52, 0.57, 13                  q = 1.0920
Date    TT    R. A. (2000) Decl.     Delta      r    Elong.  Phase     V
2024 05 01    11 59 10.5 -51 29 04   0.1487  1.1131   132.3    42.0    20.9
...
2024 05 16    14 33 12.7 -32 30 51   0.1586  1.1624   161.2    16.3    20.4
...
2024 05 24    15 16 20.2 -21 43 22   0.1888  1.1985   168.9     9.4    20.6
...
2024 05 30    15 37 33.9 -15 38 50   0.2206  1.2293   166.6    11.0    21.0
2024 05 31    15 40 28.3 -14 48 19   0.2265  1.2347   165.8    11.6    21.1
2024 06 01    15 43 14.0 -14 00 32   0.2326  1.2402   165.1    12.2    21.2
...
2024 06 07    15 57 18.7 -10 05 43   0.2725  1.2747   160.2    15.6    21.7
...
2024 06 15    16 11 35.2 -06 44 24   0.3336  1.3240   154.2    19.5    22.4
...
2024 06 30    16 31 51.9 -04 03 09   0.4692  1.4244   144.4    24.6    23.4

A. U. Tomatic                (C) Copyright 2024 MPC           M.P.E.C. 2024-K141





More information about the Iaude mailing list